When you browse on this site, cookies collect data to enhance your experience and personalize the content and advertising you see.
Visit our Privacy Policy to learn more. By continuing to use the site, you agree to this use of cookies and data.

Hourly Weather Zemlyanica

Today, 2 July, Thursday

Time Temperature Precipitation Wind Pressure Humidity
00:00 +17°C° 0 mm 2 mps 744 mmHg 91%
01:00 +17°C° 0 mm 2 mps 744 mmHg 92%
02:00 +16°C° 0 mm 2 mps 744 mmHg 94%
03:00 +17°C° 0 mm 2 mps 744 mmHg 94%
04:00 +17°C° 0 mm 2 mps 744 mmHg 94%
05:00 +17°C° 0 mm 2 mps 744 mmHg 94%
06:00 +19°C° 0 mm 3 mps 744 mmHg 88%
07:00 +21°C° 0 mm 3 mps 744 mmHg 81%
08:00 +22°C° 0 mm 3 mps 744 mmHg 75%
09:00 +25°C° 0 mm 4 mps 743 mmHg 70%
10:00 +26°C° 0 mm 4 mps 743 mmHg 65%
11:00 +28°C° 0 mm 5 mps 743 mmHg 61%
12:00 +28°C° 0.8 mm 5 mps 743 mmHg 65%
13:00 +27°C° 0.8 mm 5 mps 743 mmHg 69%
14:00 +27°C° 0.8 mm 5 mps 743 mmHg 74%
15:00 +27°C° 0.7 mm 4 mps 743 mmHg 76%
16:00 +27°C° 0.7 mm 3 mps 743 mmHg 79%
17:00 +27°C° 0.7 mm 3 mps 743 mmHg 81%
18:00 +25°C° 0.2 mm 2 mps 743 mmHg 84%
19:00 +24°C° 0.2 mm 2 mps 743 mmHg 87%
20:00 +23°C° 0.2 mm 2 mps 743 mmHg 90%
21:00 +21°C° 0.3 mm 2 mps 743 mmHg 91%
22:00 +21°C° 0.3 mm 2 mps 743 mmHg 93%
23:00 +20°C° 0.3 mm 2 mps 744 mmHg 94%

Tomorrow, 3 July, Friday

Time Temperature Precipitation Wind Pressure Humidity
00:00 +20°C° 0.6 mm 2 mps 744 mmHg 95%
01:00 +19°C° 0.6 mm 2 mps 744 mmHg 96%
02:00 +19°C° 0.6 mm 2 mps 744 mmHg 96%
03:00 +20°C° 0.2 mm 1 mps 744 mmHg 96%
04:00 +20°C° 0.2 mm 1 mps 744 mmHg 96%
05:00 +20°C° 0.2 mm 1 mps 744 mmHg 96%
06:00 +20°C° 0.5 mm 1 mps 744 mmHg 94%
07:00 +21°C° 0.5 mm 1 mps 745 mmHg 93%
08:00 +22°C° 0.5 mm 1 mps 745 mmHg 91%
09:00 +21°C° 0.7 mm 1 mps 745 mmHg 92%
10:00 +20°C° 0.7 mm 2 mps 745 mmHg 92%
11:00 +20°C° 0.7 mm 2 mps 745 mmHg 93%
12:00 +20°C° 1.1 mm 2 mps 745 mmHg 93%
13:00 +20°C° 1.1 mm 2 mps 744 mmHg 92%
14:00 +20°C° 1.1 mm 2 mps 744 mmHg 92%
15:00 +20°C° 0.2 mm 2 mps 744 mmHg 91%
16:00 +21°C° 0.2 mm 2 mps 744 mmHg 90%
17:00 +21°C° 0.2 mm 2 mps 744 mmHg 90%
18:00 +21°C° 0.8 mm 2 mps 744 mmHg 92%
19:00 +20°C° 0.8 mm 2 mps 744 mmHg 94%
20:00 +19°C° 0.8 mm 2 mps 743 mmHg 97%
21:00 +19°C° 0.9 mm 2 mps 743 mmHg 97%
22:00 +20°C° 0.9 mm 1 mps 743 mmHg 98%
23:00 +20°C° 0.9 mm 1 mps 743 mmHg 98%

Day after tomorrow, 4 July, Saturday

Time Temperature Precipitation Wind Pressure Humidity
00:00 +20°C° 0.7 mm 1 mps 744 mmHg 98%
01:00 +20°C° 0.7 mm 1 mps 744 mmHg 98%
02:00 +19°C° 0.7 mm 2 mps 744 mmHg 98%
03:00 +19°C° 0 mm 2 mps 744 mmHg 97%
04:00 +20°C° 0 mm 1 mps 744 mmHg 97%
05:00 +20°C° 0 mm 1 mps 744 mmHg 96%
06:00 +19°C° 0 mm 2 mps 745 mmHg 93%
07:00 +20°C° 0 mm 2 mps 745 mmHg 90%
08:00 +21°C° 0 mm 2 mps 745 mmHg 87%
09:00 +22°C° 0 mm 3 mps 746 mmHg 82%
10:00 +24°C° 0 mm 3 mps 746 mmHg 77%
11:00 +25°C° 0 mm 3 mps 746 mmHg 71%
12:00 +25°C° 0 mm 4 mps 746 mmHg 70%
13:00 +25°C° 0 mm 4 mps 746 mmHg 68%
14:00 +25°C° 0 mm 4 mps 746 mmHg 67%
15:00 +25°C° 0 mm 4 mps 746 mmHg 66%
16:00 +25°C° 0 mm 3 mps 746 mmHg 65%
17:00 +25°C° 0 mm 3 mps 746 mmHg 63%
18:00 +22°C° 0 mm 3 mps 746 mmHg 69%
19:00 +20°C° 0 mm 2 mps 746 mmHg 74%
20:00 +19°C° 0 mm 2 mps 747 mmHg 80%
21:00 +18°C° 0 mm 2 mps 747 mmHg 82%
22:00 +18°C° 0 mm 1 mps 747 mmHg 84%
23:00 +16°C° 0 mm 1 mps 747 mmHg 87%

5 July, Sunday

Time Temperature Precipitation Wind Pressure Humidity
00:00 +15°C° 0 mm 1 mps 747 mmHg 88%
01:00 +15°C° 0 mm 1 mps 747 mmHg 89%
02:00 +15°C° 0 mm 1 mps 747 mmHg 90%
03:00 +15°C° 0 mm 1 mps 747 mmHg 89%
04:00 +14°C° 0 mm 0 mps 747 mmHg 88%
05:00 +14°C° 0 mm 0 mps 747 mmHg 88%
06:00 +16°C° 0 mm 0 mps 747 mmHg 82%
07:00 +20°C° 0 mm 1 mps 747 mmHg 77%
08:00 +22°C° 0 mm 1 mps 747 mmHg 71%
09:00 +23°C° 0 mm 1 mps 747 mmHg 66%
10:00 +24°C° 0 mm 2 mps 747 mmHg 62%
11:00 +25°C° 0 mm 2 mps 747 mmHg 57%
12:00 +26°C° 0 mm 2 mps 747 mmHg 55%
13:00 +26°C° 0 mm 2 mps 746 mmHg 53%
14:00 +27°C° 0 mm 2 mps 746 mmHg 51%
15:00 +27°C° 0 mm 3 mps 745 mmHg 54%
16:00 +26°C° 0 mm 3 mps 745 mmHg 57%
17:00 +26°C° 0 mm 3 mps 745 mmHg 60%
18:00 +25°C° 0 mm 2 mps 745 mmHg 67%
19:00 +23°C° 0 mm 2 mps 745 mmHg 75%
20:00 +20°C° 0 mm 2 mps 745 mmHg 82%
21:00 +20°C° 0 mm 2 mps 745 mmHg 85%
22:00 +19°C° 0 mm 2 mps 745 mmHg 88%
23:00 +18°C° 0 mm 2 mps 744 mmHg 91%

6 July, Monday

Time Temperature Precipitation Wind Pressure Humidity
00:00 +18°C° 0 mm 2 mps 744 mmHg 92%
01:00 +17°C° 0 mm 2 mps 744 mmHg 93%
02:00 +17°C° 0 mm 2 mps 744 mmHg 94%
03:00 +17°C° 0 mm 2 mps 744 mmHg 94%
04:00 +17°C° 0 mm 3 mps 744 mmHg 93%
05:00 +17°C° 0 mm 3 mps 744 mmHg 92%
06:00 +19°C° 0 mm 3 mps 744 mmHg 87%
07:00 +21°C° 0 mm 4 mps 744 mmHg 81%
08:00 +22°C° 0 mm 4 mps 744 mmHg 76%
09:00 +23°C° 0 mm 5 mps 744 mmHg 72%
10:00 +26°C° 0 mm 5 mps 744 mmHg 68%
11:00 +27°C° 0 mm 5 mps 744 mmHg 64%
12:00 +27°C° 0.2 mm 5 mps 743 mmHg 64%
13:00 +27°C° 0.2 mm 5 mps 743 mmHg 65%
14:00 +28°C° 0.2 mm 5 mps 743 mmHg 66%
15:00 +26°C° 0.4 mm 4 mps 743 mmHg 72%
16:00 +25°C° 0.4 mm 3 mps 743 mmHg 79%
17:00 +24°C° 0.4 mm 2 mps 742 mmHg 86%
18:00 +24°C° 0.1 mm 2 mps 743 mmHg 87%
19:00 +23°C° 0.1 mm 1 mps 743 mmHg 89%
20:00 +22°C° 0.1 mm 1 mps 743 mmHg 90%
21:00 +22°C° 0 mm 1 mps 743 mmHg 91%
22:00 +21°C° 0 mm 1 mps 743 mmHg 92%
23:00 +20°C° 0 mm 1 mps 743 mmHg 93%

7 July, Tuesday

Time Temperature Precipitation Wind Pressure Humidity
00:00 +20°C° 0 mm 1 mps 743 mmHg 94%
01:00 +19°C° 0 mm 2 mps 743 mmHg 94%
02:00 +19°C° 0 mm 2 mps 743 mmHg 95%
03:00 +19°C° 0 mm 2 mps 743 mmHg 95%
04:00 +18°C° 0 mm 2 mps 743 mmHg 95%
05:00 +18°C° 0 mm 2 mps 743 mmHg 95%
06:00 +19°C° 0 mm 2 mps 743 mmHg 92%
07:00 +20°C° 0 mm 2 mps 744 mmHg 89%
08:00 +21°C° 0 mm 3 mps 744 mmHg 86%
09:00 +21°C° 0 mm 3 mps 744 mmHg 79%
10:00 +22°C° 0 mm 4 mps 745 mmHg 73%
11:00 +23°C° 0 mm 4 mps 745 mmHg 67%
12:00 +23°C° 0 mm 4 mps 745 mmHg 64%
13:00 +23°C° 0 mm 4 mps 745 mmHg 61%
14:00 +24°C° 0 mm 3 mps 745 mmHg 57%
15:00 +22°C° 0 mm 3 mps 745 mmHg 60%
16:00 +22°C° 0 mm 3 mps 745 mmHg 63%
17:00 +21°C° 0 mm 3 mps 745 mmHg 65%
18:00 +20°C° 0 mm 3 mps 745 mmHg 69%
19:00 +19°C° 0 mm 2 mps 745 mmHg 73%
20:00 +18°C° 0 mm 2 mps 745 mmHg 78%
21:00 +17°C° 0 mm 2 mps 745 mmHg 78%
22:00 +16°C° 0 mm 3 mps 745 mmHg 79%
23:00 +14°C° 0 mm 3 mps 745 mmHg 80%
Show more